If you wish to contribute or participate in the discussions about articles you are invited to join SKYbrary as a registered user

 Actions

Angers-Loire Airport

From SKYbrary Wiki

LFJR
Airport
ICAO: LFJR – IATA: ANE
Summary
Name Angers-Loire Airport
Region Europe
Territory France FR.gif
Location Marcé, Pays de la Loire
Serving Angers
Elevation 59.131 m <br />194 ft <br />194 ft59.131 m <br />
Type medium airport
Coordinates 47° 33' 37.08" N, 0° 18' 44.00" W
Runways
Designator Length Width Surface ROPS
8/26 1800 m5,905.512 ft <br /> 45 m147.638 ft <br /> ASP yes/yes


METAR
Observation LFJR 170400Z AUTO 08003KT CAVOK 05/05 Q1017
Station MARCE
Date/Time 17 October 2021 04:00:00
Wind direction 80°
Wind speed 03 kts
Lowest cloud amount clouds and visibility OK
Temperature 5°C
Dew point 5°C
Humidity 100%
QNH 1017 hPa
Weather condition n/a

Maps

Terrain

Loading map...

Airport Layout

Loading map...


Accidents & Serious Incidents at or in vicinity of LFJR

None on SKYbrary